カタログに戻る

SL-8 DEB

運用中LEO
NORAD 1591·DEBRIS·🇷🇺 Russia

打ち上げ Sep 18, 1965 から Baikonur Cosmodrome

Loading…

次のパス (今後24時間)

TLE

最新Source: Space-Track

元期: Sep 14, 2026, 01:09 UTC

1 01591U 65073H   26257.04861042 -.00000051  00000-0  29990-3 0  9993
2 01591  56.0546 272.0086 0152444  86.4666 304.9211 12.43054844759775

AllMySatでSL-8 DEBをリアルタイム追跡

Download on the App Store